Time,TemperatureF,DewpointF,PressureIn,WindDirection,WindDirectionDegrees,WindSpeedMPH,WindSpeedGustMPH,Humidity,HourlyPrecipIn,Conditions,Clouds,dailyrainin,SoftwareType,DateUTC
2013-03-25 00:02:00,33.8,28.0,30.11,SE,126,23.0,23.0,79,0.00,,---,0.00,VWS V14.00,2013-03-25 00:02:00,
2013-03-25 00:08:00,33.8,28.0,30.11,SE,127,27.0,28.0,79,0.00,,---,0.00,VWS V14.00,2013-03-25 00:08:00,
2013-03-25 00:13:00,33.9,28.7,30.11,ESE,110,23.0,33.0,81,0.00,,---,0.00,VWS V14.00,2013-03-25 00:13:00,
2013-03-25 00:18:00,34.0,28.5,30.11,ESE,103,22.0,28.0,80,0.00,,---,0.00,VWS V14.00,2013-03-25 00:18:00,
2013-03-25 00:23:00,33.9,28.1,30.11,East,101,27.0,32.0,79,0.00,,---,0.00,VWS V14.00,2013-03-25 00:23:00,
2013-03-25 00:28:00,34.0,28.5,30.11,SE,124,14.0,27.0,80,0.00,,---,0.00,VWS V14.00,2013-03-25 00:28:00,
2013-03-25 00:33:00,34.1,28.0,30.11,ESE,103,19.0,23.0,78,0.00,,---,0.00,VWS V14.00,2013-03-25 00:33:00,
2013-03-25 00:38:00,34.0,28.2,30.11,SE,133,26.0,29.0,79,0.00,,---,0.00,VWS V14.00,2013-03-25 00:38:00,
2013-03-25 00:44:00,34.0,28.2,30.11,East,101,29.0,31.0,79,0.00,,---,0.00,VWS V14.00,2013-03-25 00:44:00,
2013-03-25 00:49:00,34.1,28.0,30.11,East,100,20.0,21.0,78,0.00,,---,0.00,VWS V14.00,2013-03-25 00:49:00,
2013-03-25 00:54:00,34.1,28.0,30.12,ESE,109,23.0,23.0,78,0.00,,---,0.00,VWS V14.00,2013-03-25 00:54:00,
2013-03-25 00:59:00,34.2,28.7,30.11,ESE,115,23.0,24.0,80,0.00,,---,0.00,VWS V14.00,2013-03-25 00:59:00,
2013-03-25 01:04:00,34.2,28.1,30.12,ESE,105,18.0,29.0,78,0.00,,---,0.00,VWS V14.00,2013-03-25 01:04:00,
2013-03-25 01:09:00,34.3,28.8,30.12,SE,144,15.0,23.0,80,0.00,,---,0.00,VWS V14.00,2013-03-25 01:09:00,
2013-03-25 01:14:00,34.3,28.5,30.12,ESE,119,21.0,33.0,79,0.00,,---,0.00,VWS V14.00,2013-03-25 01:14:00,
2013-03-25 01:19:00,34.1,27.7,30.11,SE,129,34.0,34.0,77,0.00,,---,0.00,VWS V14.00,2013-03-25 01:19:00,
2013-03-25 01:24:00,34.2,28.4,30.12,ESE,119,23.0,24.0,79,0.00,,---,0.00,VWS V14.00,2013-03-25 01:24:00,
2013-03-25 01:29:00,34.2,27.8,30.12,ESE,123,20.0,26.0,77,0.00,,---,0.00,VWS V14.00,2013-03-25 01:29:00,
2013-03-25 01:34:00,34.1,27.7,30.11,ESE,107,28.0,33.0,77,0.00,,---,0.00,VWS V14.00,2013-03-25 01:34:00,
2013-03-25 01:40:00,34.1,27.7,30.12,SE,125,22.0,31.0,77,0.00,,---,0.00,VWS V14.00,2013-03-25 01:40:00,
2013-03-25 01:45:00,34.2,27.8,30.12,ESE,115,26.0,33.0,77,0.00,,---,0.00,VWS V14.00,2013-03-25 01:45:00,
2013-03-25 01:50:00,34.3,28.2,30.12,ESE,115,28.0,28.0,78,0.00,,---,0.00,VWS V14.00,2013-03-25 01:50:00,
2013-03-25 01:55:00,34.3,28.2,30.12,East,82,21.0,24.0,78,0.00,,---,0.00,VWS V14.00,2013-03-25 01:55:00,
2013-03-25 02:00:00,34.3,28.5,30.12,East,101,17.0,26.0,79,0.00,,---,0.00,VWS V14.00,2013-03-25 02:00:00,
2013-03-25 02:06:00,34.4,28.3,30.12,SE,125,20.0,27.0,78,0.00,,---,0.00,VWS V14.00,2013-03-25 02:06:00,
2013-03-25 02:11:00,34.3,28.2,30.12,ESE,108,32.0,32.0,78,0.00,,---,0.00,VWS V14.00,2013-03-25 02:11:00,
2013-03-25 02:16:00,34.3,27.5,30.12,ESE,121,24.0,35.0,76,0.00,,---,0.00,VWS V14.00,2013-03-25 02:16:00,
2013-03-25 02:21:00,34.3,27.9,30.12,ESE,111,29.0,31.0,77,0.00,,---,0.00,VWS V14.00,2013-03-25 02:21:00,
2013-03-25 02:27:00,34.3,27.9,30.12,ESE,110,32.0,34.0,77,0.00,,---,0.00,VWS V14.00,2013-03-25 02:27:00,
2013-03-25 02:32:00,34.3,27.5,30.13,ESE,111,19.0,24.0,76,0.00,,---,0.00,VWS V14.00,2013-03-25 02:32:00,
2013-03-25 02:38:00,34.2,27.4,30.12,ESE,115,32.0,32.0,76,0.00,,---,0.00,VWS V14.00,2013-03-25 02:38:00,
2013-03-25 02:44:00,34.3,27.5,30.12,ESE,111,29.0,29.0,76,0.00,,---,0.00,VWS V14.00,2013-03-25 02:44:00,
2013-03-25 02:49:00,34.4,28.0,30.12,ESE,115,28.0,28.0,77,0.00,,---,0.00,VWS V14.00,2013-03-25 02:49:00,
2013-03-25 02:54:00,34.5,28.0,30.12,SE,130,25.0,25.0,77,0.00,,---,0.00,VWS V14.00,2013-03-25 02:54:00,
2013-03-25 02:59:00,34.4,27.3,30.12,ESE,111,37.0,37.0,75,0.00,,---,0.00,VWS V14.00,2013-03-25 02:59:00,
2013-03-25 03:04:00,34.4,28.0,30.12,ESE,105,22.0,26.0,77,0.00,,---,0.00,VWS V14.00,2013-03-25 03:04:00,
2013-03-25 03:10:00,34.6,28.5,30.13,ESE,115,20.0,28.0,78,0.00,,---,0.00,VWS V14.00,2013-03-25 03:10:00,
2013-03-25 03:16:00,34.5,27.4,30.13,ESE,112,29.0,29.0,75,0.00,,---,0.00,VWS V14.00,2013-03-25 03:16:00,
2013-03-25 03:21:00,34.5,27.4,30.12,ESE,111,18.0,26.0,75,0.00,,---,0.00,VWS V14.00,2013-03-25 03:21:00,
2013-03-25 03:26:00,34.5,27.7,30.12,ESE,105,30.0,30.0,76,0.00,,---,0.00,VWS V14.00,2013-03-25 03:26:00,
2013-03-25 03:31:00,34.5,27.7,30.12,ESE,111,17.0,27.0,76,0.00,,---,0.00,VWS V14.00,2013-03-25 03:31:00,
2013-03-25 03:36:00,34.6,28.1,30.13,ESE,120,19.0,30.0,77,0.00,,---,0.00,VWS V14.00,2013-03-25 03:36:00,
2013-03-25 03:41:00,34.6,28.1,30.12,ESE,107,28.0,28.0,77,0.00,,---,0.00,VWS V14.00,2013-03-25 03:41:00,
2013-03-25 03:47:00,34.7,28.2,30.12,ESE,111,30.0,33.0,77,0.00,,---,0.00,VWS V14.00,2013-03-25 03:47:00,
2013-03-25 03:52:00,34.7,28.5,30.12,SE,126,20.0,26.0,78,0.00,,---,0.00,VWS V14.00,2013-03-25 03:52:00,
2013-03-25 03:57:00,34.8,28.6,30.12,East,87,16.0,25.0,78,0.00,,---,0.00,VWS V14.00,2013-03-25 03:57:00,
2013-03-25 04:00:00,34.7,28.5,30.12,ESE,122,22.0,22.0,78,0.00,,---,0.00,VWS V14.00,2013-03-25 04:00:00,
2013-03-25 04:01:00,34.7,28.5,30.12,ESE,103,20.0,27.0,78,0.00,,---,0.00,VWS V14.00,2013-03-25 04:01:00,
2013-03-25 04:04:00,34.6,28.8,30.12,ESE,118,23.0,28.0,79,0.00,,---,0.00,VWS V14.00,2013-03-25 04:04:00,
2013-03-25 04:07:00,34.7,28.9,30.12,ESE,123,27.0,27.0,79,0.00,,---,0.00,VWS V14.00,2013-03-25 04:07:00,
2013-03-25 04:12:00,34.7,28.9,30.12,ESE,118,17.0,24.0,79,0.00,,---,0.00,VWS V14.00,2013-03-25 04:12:00,
2013-03-25 04:17:00,34.7,28.5,30.12,SE,124,25.0,28.0,78,0.00,,---,0.00,VWS V14.00,2013-03-25 04:17:00,
2013-03-25 04:22:00,34.9,28.8,30.13,SE,126,32.0,32.0,78,0.00,,---,0.00,VWS V14.00,2013-03-25 04:22:00,
2013-03-25 04:27:00,34.9,28.8,30.13,East,93,18.0,31.0,78,0.00,,---,0.00,VWS V14.00,2013-03-25 04:27:00,
2013-03-25 04:32:00,35.0,28.5,30.12,East,97,19.0,20.0,77,0.00,,---,0.00,VWS V14.00,2013-03-25 04:32:00,
2013-03-25 04:37:00,34.9,28.8,30.13,ESE,105,19.0,23.0,78,0.00,,---,0.00,VWS V14.00,2013-03-25 04:37:00,
2013-03-25 04:43:00,34.8,28.0,30.13,SE,143,20.0,28.0,76,0.00,,---,0.00,VWS V14.00,2013-03-25 04:43:00,
2013-03-25 04:48:00,34.8,28.3,30.13,East,101,22.0,27.0,77,0.00,,---,0.00,VWS V14.00,2013-03-25 04:48:00,
2013-03-25 04:54:00,34.9,28.4,30.13,ESE,111,14.0,24.0,77,0.00,,---,0.00,VWS V14.00,2013-03-25 04:54:00,
2013-03-25 04:59:00,34.8,28.6,30.13,East,94,23.0,29.0,78,0.00,,---,0.00,VWS V14.00,2013-03-25 04:59:00,
2013-03-25 05:04:00,35.0,29.2,30.13,ESE,114,18.0,23.0,79,0.00,,---,0.00,VWS V14.00,2013-03-25 05:04:00,
2013-03-25 05:09:00,35.1,29.6,30.13,SE,143,20.0,27.0,80,0.00,,---,0.00,VWS V14.00,2013-03-25 05:09:00,
2013-03-25 05:14:00,35.3,29.5,30.13,ESE,105,15.0,18.0,79,0.00,,---,0.00,VWS V14.00,2013-03-25 05:14:00,
2013-03-25 05:19:00,35.2,29.0,30.13,ESE,103,26.0,26.0,78,0.00,,---,0.00,VWS V14.00,2013-03-25 05:19:00,
2013-03-25 05:24:00,35.3,29.1,30.13,East,97,19.0,24.0,78,0.00,,---,0.00,VWS V14.00,2013-03-25 05:24:00,
2013-03-25 05:29:00,35.3,28.5,30.13,ESE,118,12.0,24.0,76,0.00,,---,0.00,VWS V14.00,2013-03-25 05:29:00,
2013-03-25 05:34:00,35.4,29.2,30.13,East,97,31.0,31.0,78,0.00,,---,0.00,VWS V14.00,2013-03-25 05:34:00,
2013-03-25 05:39:00,35.3,28.8,30.13,East,100,24.0,30.0,77,0.00,,---,0.00,VWS V14.00,2013-03-25 05:39:00,
2013-03-25 05:45:00,35.3,28.5,30.13,ESE,113,17.0,31.0,76,0.00,,---,0.00,VWS V14.00,2013-03-25 05:45:00,
2013-03-25 05:50:00,35.2,28.4,30.13,ESE,109,23.0,33.0,76,0.00,,---,0.00,VWS V14.00,2013-03-25 05:50:00,
2013-03-25 05:55:00,35.2,28.1,30.13,ESE,111,30.0,33.0,75,0.00,,---,0.00,VWS V14.00,2013-03-25 05:55:00,
2013-03-25 06:00:00,35.3,29.1,30.13,East,88,20.0,22.0,78,0.00,,---,0.00,VWS V14.00,2013-03-25 06:00:00,
2013-03-25 06:05:00,35.3,29.1,30.13,ENE,71,18.0,27.0,78,0.00,,---,0.00,VWS V14.00,2013-03-25 06:05:00,
2013-03-25 06:10:00,35.3,29.1,30.12,ESE,109,24.0,30.0,78,0.00,,---,0.00,VWS V14.00,2013-03-25 06:10:00,
2013-03-25 06:15:00,35.2,28.7,30.13,East,101,20.0,30.0,77,0.00,,---,0.00,VWS V14.00,2013-03-25 06:15:00,
2013-03-25 06:20:00,35.1,28.3,30.13,SE,138,22.0,30.0,76,0.00,,---,0.00,VWS V14.00,2013-03-25 06:20:00,
2013-03-25 06:25:00,35.1,28.3,30.13,ESE,115,23.0,28.0,76,0.00,,---,0.00,VWS V14.00,2013-03-25 06:25:00,
2013-03-25 06:30:00,35.2,28.7,30.13,ESE,114,15.0,32.0,77,0.00,,---,0.00,VWS V14.00,2013-03-25 06:30:00,
2013-03-25 06:35:00,35.2,29.0,30.13,ESE,104,24.0,30.0,78,0.00,,---,0.00,VWS V14.00,2013-03-25 06:35:00,
2013-03-25 06:40:00,35.2,29.0,30.13,East,90,22.0,29.0,78,0.00,,---,0.00,VWS V14.00,2013-03-25 06:40:00,
2013-03-25 06:45:00,35.1,28.3,30.13,ENE,73,15.0,22.0,76,0.00,,---,0.00,VWS V14.00,2013-03-25 06:45:00,
2013-03-25 06:51:00,35.2,29.0,30.13,SE,130,21.0,33.0,78,0.00,,---,0.00,VWS V14.00,2013-03-25 06:51:00,
2013-03-25 06:57:00,35.2,28.7,30.13,SE,133,22.0,26.0,77,0.00,,---,0.00,VWS V14.00,2013-03-25 06:57:00,
2013-03-25 07:02:00,35.2,29.0,30.13,SE,132,14.0,27.0,78,0.00,,---,0.00,VWS V14.00,2013-03-25 07:02:00,
2013-03-25 07:07:00,35.3,29.1,30.13,SE,124,20.0,26.0,78,0.00,,---,0.00,VWS V14.00,2013-03-25 07:07:00,
2013-03-25 07:13:00,35.2,29.4,30.13,ESE,118,21.0,28.0,79,0.00,,---,0.00,VWS V14.00,2013-03-25 07:13:00,
2013-03-25 07:18:00,35.2,29.4,30.13,ESE,107,20.0,26.0,79,0.00,,---,0.00,VWS V14.00,2013-03-25 07:18:00,
2013-03-25 07:23:00,35.2,28.7,30.13,ESE,121,24.0,25.0,77,0.00,,---,0.00,VWS V14.00,2013-03-25 07:23:00,
2013-03-25 07:28:00,35.3,28.8,30.13,ESE,104,19.0,25.0,77,0.00,,---,0.00,VWS V14.00,2013-03-25 07:28:00,
2013-03-25 07:33:00,35.3,29.1,30.13,ESE,113,26.0,31.0,78,0.00,,---,0.00,VWS V14.00,2013-03-25 07:33:00,
2013-03-25 07:38:00,35.2,28.7,30.13,ESE,112,30.0,31.0,77,0.00,,---,0.00,VWS V14.00,2013-03-25 07:38:00,
2013-03-25 07:43:00,35.3,28.8,30.13,East,80,29.0,30.0,77,0.00,,---,0.00,VWS V14.00,2013-03-25 07:43:00,
2013-03-25 07:48:00,35.3,29.1,30.13,ESE,121,26.0,32.0,78,0.00,,---,0.00,VWS V14.00,2013-03-25 07:48:00,
2013-03-25 07:53:00,35.2,28.7,30.13,East,88,15.0,26.0,77,0.00,,---,0.00,VWS V14.00,2013-03-25 07:53:00,
2013-03-25 07:58:00,35.1,28.3,30.13,ESE,106,22.0,28.0,76,0.00,,---,0.00,VWS V14.00,2013-03-25 07:58:00,
2013-03-25 08:03:00,35.2,28.4,30.13,ESE,103,29.0,29.0,76,0.00,,---,0.00,VWS V14.00,2013-03-25 08:03:00,
2013-03-25 08:08:00,35.3,28.8,30.13,ESE,120,24.0,30.0,77,0.00,,---,0.00,VWS V14.00,2013-03-25 08:08:00,
2013-03-25 08:13:00,35.2,28.4,30.14,ESE,112,27.0,33.0,76,0.00,,---,0.00,VWS V14.00,2013-03-25 08:13:00,
2013-03-25 08:19:00,35.2,28.7,30.13,ESE,115,28.0,33.0,77,0.00,,---,0.00,VWS V14.00,2013-03-25 08:19:00,
2013-03-25 08:24:00,35.3,28.8,30.13,ESE,106,22.0,22.0,77,0.00,,---,0.00,VWS V14.00,2013-03-25 08:24:00,
2013-03-25 08:29:00,35.5,28.7,30.13,ESE,123,24.0,24.0,76,0.00,,---,0.00,VWS V14.00,2013-03-25 08:29:00,
2013-03-25 08:34:00,35.3,28.8,30.13,ESE,108,19.0,28.0,77,0.00,,---,0.00,VWS V14.00,2013-03-25 08:34:00,
2013-03-25 08:39:00,35.3,28.5,30.14,ESE,104,27.0,32.0,76,0.00,,---,0.00,VWS V14.00,2013-03-25 08:39:00,
2013-03-25 08:45:00,35.3,28.5,30.13,SE,126,23.0,31.0,76,0.00,,---,0.00,VWS V14.00,2013-03-25 08:45:00,
2013-03-25 08:50:00,35.3,28.8,30.13,ESE,105,23.0,31.0,77,0.00,,---,0.00,VWS V14.00,2013-03-25 08:50:00,
2013-03-25 08:55:00,35.3,28.5,30.13,ESE,111,24.0,33.0,76,0.00,,---,0.00,VWS V14.00,2013-03-25 08:55:00,
2013-03-25 09:00:00,35.4,28.3,30.13,East,84,26.0,30.0,75,0.00,,---,0.00,VWS V14.00,2013-03-25 09:00:00,
2013-03-25 09:05:00,35.4,28.3,30.14,ENE,74,27.0,35.0,75,0.00,,---,0.00,VWS V14.00,2013-03-25 09:05:00,
2013-03-25 09:11:00,35.6,28.5,30.13,ESE,110,17.0,25.0,75,0.00,,---,0.00,VWS V14.00,2013-03-25 09:11:00,
2013-03-25 09:16:00,35.4,28.3,30.13,ESE,102,22.0,29.0,75,0.00,,---,0.00,VWS V14.00,2013-03-25 09:16:00,
2013-03-25 09:21:00,35.4,28.3,30.13,East,89,21.0,28.0,75,0.00,,---,0.00,VWS V14.00,2013-03-25 09:21:00,
2013-03-25 09:26:00,35.3,28.2,30.13,East,97,25.0,36.0,75,0.00,,---,0.00,VWS V14.00,2013-03-25 09:26:00,
2013-03-25 09:32:00,35.3,28.5,30.13,ESE,121,25.0,32.0,76,0.00,,---,0.00,VWS V14.00,2013-03-25 09:32:00,
2013-03-25 09:37:00,35.3,27.9,30.13,ESE,122,23.0,28.0,74,0.00,,---,0.00,VWS V14.00,2013-03-25 09:37:00,
2013-03-25 09:42:00,35.5,29.3,30.13,ESE,123,23.0,26.0,78,0.00,,---,0.00,VWS V14.00,2013-03-25 09:42:00,
2013-03-25 09:47:00,35.5,29.0,30.14,East,99,25.0,25.0,77,0.00,,---,0.00,VWS V14.00,2013-03-25 09:47:00,
2013-03-25 09:52:00,35.5,29.0,30.14,SE,128,16.0,25.0,77,0.00,,---,0.00,VWS V14.00,2013-03-25 09:52:00,
2013-03-25 09:57:00,35.4,28.3,30.14,East,89,24.0,31.0,75,0.00,,---,0.00,VWS V14.00,2013-03-25 09:57:00,
2013-03-25 10:02:00,35.5,28.4,30.14,SE,132,20.0,27.0,75,0.00,,---,0.00,VWS V14.00,2013-03-25 10:02:00,
2013-03-25 10:07:00,35.7,29.5,30.14,SE,130,20.0,21.0,78,0.00,,---,0.00,VWS V14.00,2013-03-25 10:07:00,
2013-03-25 10:12:00,35.8,29.3,30.14,East,101,20.0,25.0,77,0.00,,---,0.00,VWS V14.00,2013-03-25 10:12:00,
2013-03-25 10:17:00,35.6,29.1,30.14,ENE,77,25.0,33.0,77,0.00,,---,0.00,VWS V14.00,2013-03-25 10:17:00,
2013-03-25 10:22:00,35.5,28.7,30.14,ESE,113,33.0,33.0,76,0.00,,---,0.00,VWS V14.00,2013-03-25 10:22:00,
2013-03-25 10:27:00,35.6,29.1,30.14,East,93,26.0,31.0,77,0.00,,---,0.00,VWS V14.00,2013-03-25 10:27:00,
2013-03-25 10:32:00,35.5,28.7,30.14,East,98,27.0,27.0,76,0.00,,---,0.00,VWS V14.00,2013-03-25 10:32:00,
2013-03-25 10:37:00,35.5,28.4,30.14,East,87,24.0,26.0,75,0.00,,---,0.00,VWS V14.00,2013-03-25 10:37:00,
2013-03-25 10:42:00,35.5,28.4,30.14,ESE,117,15.0,30.0,75,0.00,,---,0.00,VWS V14.00,2013-03-25 10:42:00,
2013-03-25 10:47:00,35.6,28.8,30.14,East,96,26.0,31.0,76,0.00,,---,0.00,VWS V14.00,2013-03-25 10:47:00,
2013-03-25 10:52:00,35.8,29.0,30.13,ESE,115,16.0,27.0,76,0.00,,---,0.00,VWS V14.00,2013-03-25 10:52:00,
2013-03-25 10:57:00,36.0,29.2,30.13,ESE,121,22.0,30.0,76,0.00,,---,0.00,VWS V14.00,2013-03-25 10:57:00,
2013-03-25 11:02:00,35.9,29.1,30.13,ESE,105,18.0,30.0,76,0.00,,---,0.00,VWS V14.00,2013-03-25 11:02:00,
2013-03-25 11:07:00,36.2,29.7,30.13,ESE,117,20.0,28.0,77,0.00,,---,0.00,VWS V14.00,2013-03-25 11:07:00,
2013-03-25 11:12:00,36.7,29.9,30.13,ESE,104,27.0,28.0,76,0.00,,---,0.00,VWS V14.00,2013-03-25 11:12:00,
2013-03-25 11:17:00,36.6,28.8,30.13,East,96,25.0,33.0,73,0.00,,---,0.00,VWS V14.00,2013-03-25 11:17:00,
2013-03-25 11:22:00,36.7,28.5,30.13,East,88,31.0,31.0,72,0.00,,---,0.00,VWS V14.00,2013-03-25 11:22:00,
2013-03-25 11:28:00,36.6,29.8,30.13,ESE,105,20.0,25.0,76,0.00,,---,0.00,VWS V14.00,2013-03-25 11:28:00,
2013-03-25 11:34:00,36.6,29.1,30.13,ESE,108,15.0,25.0,74,0.00,,---,0.00,VWS V14.00,2013-03-25 11:34:00,
2013-03-25 11:39:00,36.3,28.8,30.13,ESE,109,27.0,27.0,74,0.00,,---,0.00,VWS V14.00,2013-03-25 11:39:00,
2013-03-25 11:45:00,36.2,29.4,30.13,East,84,18.0,26.0,76,0.00,,---,0.00,VWS V14.00,2013-03-25 11:45:00,
2013-03-25 11:50:00,36.2,28.7,30.13,East,100,21.0,22.0,74,0.00,,---,0.00,VWS V14.00,2013-03-25 11:50:00,
2013-03-25 11:55:00,36.2,28.4,30.13,East,92,17.0,30.0,73,0.00,,---,0.00,VWS V14.00,2013-03-25 11:55:00,
2013-03-25 12:01:00,36.4,28.6,30.14,East,84,31.0,33.0,73,0.00,,---,0.00,VWS V14.00,2013-03-25 12:01:00,
2013-03-25 12:06:00,36.2,28.4,30.13,ESE,116,23.0,28.0,73,0.00,,---,0.00,VWS V14.00,2013-03-25 12:06:00,
2013-03-25 12:11:00,36.4,29.2,30.13,ESE,117,31.0,31.0,75,0.00,,---,0.00,VWS V14.00,2013-03-25 12:11:00,
2013-03-25 12:16:00,36.6,29.1,30.14,East,101,23.0,27.0,74,0.00,,---,0.00,VWS V14.00,2013-03-25 12:16:00,
2013-03-25 12:21:00,36.5,28.7,30.14,ESE,107,19.0,33.0,73,0.00,,---,0.00,VWS V14.00,2013-03-25 12:21:00,
2013-03-25 12:27:00,36.6,29.4,30.14,ESE,105,18.0,23.0,75,0.00,,---,0.00,VWS V14.00,2013-03-25 12:27:00,
2013-03-25 12:32:00,36.4,28.2,30.14,ESE,116,30.0,30.0,72,0.00,,---,0.00,VWS V14.00,2013-03-25 12:32:00,
2013-03-25 12:37:00,36.4,28.6,30.13,East,101,23.0,28.0,73,0.00,,---,0.00,VWS V14.00,2013-03-25 12:37:00,
2013-03-25 12:42:00,37.0,29.5,30.13,ESE,114,24.0,31.0,74,0.00,,---,0.00,VWS V14.00,2013-03-25 12:42:00,
2013-03-25 12:48:00,37.0,28.5,30.14,East,88,24.0,28.0,71,0.00,,---,0.00,VWS V14.00,2013-03-25 12:48:00,
2013-03-25 12:53:00,36.8,29.0,30.13,SSE,153,25.0,31.0,73,0.00,,---,0.00,VWS V14.00,2013-03-25 12:53:00,
2013-03-25 12:58:00,36.6,28.8,30.13,ESE,107,22.0,32.0,73,0.00,,---,0.00,VWS V14.00,2013-03-25 12:58:00,
2013-03-25 13:03:00,36.9,28.4,30.14,ESE,110,11.0,30.0,71,0.00,,---,0.00,VWS V14.00,2013-03-25 13:03:00,
2013-03-25 13:09:00,36.6,28.4,30.13,ESE,115,20.0,25.0,72,0.00,,---,0.00,VWS V14.00,2013-03-25 13:09:00,
2013-03-25 13:14:00,36.9,28.7,30.13,East,96,21.0,30.0,72,0.00,,---,0.00,VWS V14.00,2013-03-25 13:14:00,
2013-03-25 13:19:00,36.8,29.0,30.13,SE,132,15.0,26.0,73,0.00,,---,0.00,VWS V14.00,2013-03-25 13:19:00,
2013-03-25 13:24:00,36.8,29.0,30.13,East,88,15.0,15.0,73,0.00,,---,0.00,VWS V14.00,2013-03-25 13:24:00,
2013-03-25 13:29:00,36.8,28.6,30.13,East,92,24.0,26.0,72,0.00,,---,0.00,VWS V14.00,2013-03-25 13:29:00,
2013-03-25 13:34:00,36.7,28.5,30.13,ENE,74,14.0,19.0,72,0.00,,---,0.00,VWS V14.00,2013-03-25 13:34:00,
2013-03-25 13:40:00,37.3,29.1,30.13,East,97,18.0,31.0,72,0.00,,---,0.00,VWS V14.00,2013-03-25 13:40:00,
2013-03-25 13:45:00,37.0,29.2,30.13,ESE,114,19.0,27.0,73,0.00,,---,0.00,VWS V14.00,2013-03-25 13:45:00,
2013-03-25 13:50:00,37.1,28.6,30.13,ESE,109,20.0,23.0,71,0.00,,---,0.00,VWS V14.00,2013-03-25 13:50:00,
2013-03-25 13:55:00,37.1,28.6,30.13,ESE,121,18.0,22.0,71,0.00,,---,0.00,VWS V14.00,2013-03-25 13:55:00,
2013-03-25 14:00:00,37.1,28.2,30.13,East,94,14.0,25.0,70,0.00,,---,0.00,VWS V14.00,2013-03-25 14:00:00,
2013-03-25 14:05:00,37.1,28.6,30.13,East,98,24.0,30.0,71,0.00,,---,0.00,VWS V14.00,2013-03-25 14:05:00,
2013-03-25 14:10:00,37.1,29.3,30.13,ESE,104,17.0,21.0,73,0.00,,---,0.00,VWS V14.00,2013-03-25 14:10:00,
2013-03-25 14:16:00,37.0,29.2,30.13,East,84,7.0,25.0,73,0.00,,---,0.00,VWS V14.00,2013-03-25 14:16:00,
2013-03-25 14:21:00,37.0,29.5,30.13,East,86,23.0,23.0,74,0.00,,---,0.00,VWS V14.00,2013-03-25 14:21:00,
2013-03-25 14:27:00,37.0,29.5,30.12,ESE,109,25.0,25.0,74,0.00,,---,0.00,VWS V14.00,2013-03-25 14:27:00,
2013-03-25 14:32:00,37.5,29.6,30.12,ESE,107,16.0,27.0,73,0.00,,---,0.00,VWS V14.00,2013-03-25 14:32:00,
2013-03-25 14:37:00,37.6,29.4,30.13,ESE,112,22.0,28.0,72,0.00,,---,0.00,VWS V14.00,2013-03-25 14:37:00,
2013-03-25 14:42:00,37.5,29.3,30.12,NE,42,21.0,32.0,72,0.00,,---,0.00,VWS V14.00,2013-03-25 14:42:00,
2013-03-25 14:47:00,37.2,29.0,30.12,SE,127,25.0,35.0,72,0.00,,---,0.00,VWS V14.00,2013-03-25 14:47:00,
2013-03-25 14:53:00,37.2,29.0,30.12,ESE,121,23.0,30.0,72,0.00,,---,0.00,VWS V14.00,2013-03-25 14:53:00,
2013-03-25 14:59:00,37.0,28.8,30.13,East,90,21.0,30.0,72,0.00,,---,0.00,VWS V14.00,2013-03-25 14:59:00,
2013-03-25 15:05:00,37.1,29.3,30.12,East,96,17.0,27.0,73,0.00,,---,0.00,VWS V14.00,2013-03-25 15:05:00,
2013-03-25 15:10:00,37.0,28.8,30.12,ESE,123,25.0,29.0,72,0.00,,---,0.00,VWS V14.00,2013-03-25 15:10:00,
2013-03-25 15:15:00,36.9,28.4,30.12,East,98,24.0,28.0,71,0.00,,---,0.00,VWS V14.00,2013-03-25 15:15:00,
2013-03-25 15:20:00,37.0,28.8,30.11,East,101,29.0,29.0,72,0.00,,---,0.00,VWS V14.00,2013-03-25 15:20:00,
2013-03-25 15:26:00,36.8,28.0,30.12,East,80,17.0,23.0,70,0.00,,---,0.00,VWS V14.00,2013-03-25 15:26:00,
2013-03-25 15:32:00,36.9,28.0,30.12,SE,125,28.0,30.0,70,0.00,,---,0.00,VWS V14.00,2013-03-25 15:32:00,
2013-03-25 15:37:00,36.8,28.0,30.12,East,82,17.0,25.0,70,0.00,,---,0.00,VWS V14.00,2013-03-25 15:37:00,
2013-03-25 15:42:00,36.9,28.4,30.12,SE,127,23.0,27.0,71,0.00,,---,0.00,VWS V14.00,2013-03-25 15:42:00,
2013-03-25 15:48:00,36.9,28.4,30.12,East,91,23.0,23.0,71,0.00,,---,0.00,VWS V14.00,2013-03-25 15:48:00,
2013-03-25 15:53:00,36.8,28.0,30.12,ESE,117,25.0,29.0,70,0.00,,---,0.00,VWS V14.00,2013-03-25 15:53:00,
2013-03-25 15:58:00,37.1,28.9,30.12,East,92,27.0,28.0,72,0.00,,---,0.00,VWS V14.00,2013-03-25 15:58:00,
2013-03-25 16:03:00,36.9,29.1,30.12,ENE,78,18.0,22.0,73,0.00,,---,0.00,VWS V14.00,2013-03-25 16:03:00,
2013-03-25 16:08:00,36.8,28.3,30.12,ESE,109,17.0,31.0,71,0.00,,---,0.00,VWS V14.00,2013-03-25 16:08:00,
2013-03-25 16:13:00,36.7,28.5,30.12,SE,128,25.0,32.0,72,0.00,,---,0.00,VWS V14.00,2013-03-25 16:13:00,
2013-03-25 16:18:00,37.0,28.5,30.11,ESE,107,17.0,26.0,71,0.00,,---,0.00,VWS V14.00,2013-03-25 16:18:00,
2013-03-25 16:25:00,37.1,28.6,30.11,ESE,109,22.0,26.0,71,0.00,,---,0.00,VWS V14.00,2013-03-25 16:25:00,
2013-03-25 16:30:00,37.0,28.8,30.11,East,101,19.0,23.0,72,0.00,,---,0.00,VWS V14.00,2013-03-25 16:30:00,
2013-03-25 16:35:00,37.0,29.2,30.11,ESE,111,21.0,26.0,73,0.00,,---,0.00,VWS V14.00,2013-03-25 16:35:00,
2013-03-25 16:40:00,37.0,28.8,30.11,ESE,102,16.0,23.0,72,0.00,,---,0.00,VWS V14.00,2013-03-25 16:40:00,
2013-03-25 16:45:00,37.1,29.3,30.11,ESE,119,17.0,30.0,73,0.00,,---,0.00,VWS V14.00,2013-03-25 16:45:00,
2013-03-25 16:50:00,37.0,28.5,30.11,ESE,105,18.0,23.0,71,0.00,,---,0.00,VWS V14.00,2013-03-25 16:50:00,
2013-03-25 16:56:00,37.0,28.1,30.11,East,85,25.0,25.0,70,0.00,,---,0.00,VWS V14.00,2013-03-25 16:56:00,
2013-03-25 17:01:00,37.0,28.1,30.11,ESE,105,24.0,24.0,70,0.00,,---,0.00,VWS V14.00,2013-03-25 17:01:00,
2013-03-25 17:06:00,37.0,28.1,30.11,ESE,121,21.0,28.0,70,0.00,,---,0.00,VWS V14.00,2013-03-25 17:06:00,
2013-03-25 17:12:00,37.0,29.2,30.11,East,92,18.0,23.0,73,0.00,,---,0.00,VWS V14.00,2013-03-25 17:12:00,
2013-03-25 17:17:00,36.9,29.4,30.11,ESE,112,19.0,25.0,74,0.00,,---,0.00,VWS V14.00,2013-03-25 17:17:00,
2013-03-25 17:22:00,36.9,29.7,30.11,East,101,26.0,30.0,75,0.00,,---,0.00,VWS V14.00,2013-03-25 17:22:00,
2013-03-25 17:27:00,36.8,28.6,30.11,ESE,115,23.0,26.0,72,0.00,,---,0.00,VWS V14.00,2013-03-25 17:27:00,
2013-03-25 17:33:00,36.8,29.3,30.11,ESE,104,19.0,24.0,74,0.00,,---,0.00,VWS V14.00,2013-03-25 17:33:00,
2013-03-25 17:38:00,36.7,28.2,30.12,ESE,112,20.0,24.0,71,0.00,,---,0.00,VWS V14.00,2013-03-25 17:38:00,
2013-03-25 17:43:00,36.7,28.2,30.12,ESE,115,16.0,25.0,71,0.00,,---,0.00,VWS V14.00,2013-03-25 17:43:00,
2013-03-25 17:49:00,36.8,29.6,30.12,East,90,31.0,31.0,75,0.00,,---,0.00,VWS V14.00,2013-03-25 17:49:00,
2013-03-25 17:54:00,36.8,29.3,30.12,South,169,15.0,26.0,74,0.00,,---,0.00,VWS V14.00,2013-03-25 17:54:00,
2013-03-25 17:59:00,36.6,29.1,30.12,ENE,73,14.0,22.0,74,0.00,,---,0.00,VWS V14.00,2013-03-25 17:59:00,
2013-03-25 18:05:00,36.7,29.2,30.12,East,86,20.0,23.0,74,0.00,,---,0.00,VWS V14.00,2013-03-25 18:05:00,
2013-03-25 18:12:00,36.6,28.4,30.12,East,98,29.0,31.0,72,0.00,,---,0.00,VWS V14.00,2013-03-25 18:12:00,
2013-03-25 18:17:00,36.5,27.3,30.12,ESE,103,32.0,32.0,69,0.00,,---,0.00,VWS V14.00,2013-03-25 18:17:00,
2013-03-25 18:22:00,36.5,27.7,30.12,East,81,17.0,24.0,70,0.00,,---,0.00,VWS V14.00,2013-03-25 18:22:00,
2013-03-25 18:27:00,36.5,28.4,30.12,East,99,16.0,23.0,72,0.00,,---,0.00,VWS V14.00,2013-03-25 18:27:00,
2013-03-25 18:32:00,36.7,29.9,30.13,East,99,21.0,21.0,76,0.00,,---,0.00,VWS V14.00,2013-03-25 18:32:00,
2013-03-25 18:37:00,36.8,30.0,30.13,SE,130,23.0,28.0,76,0.00,,---,0.00,VWS V14.00,2013-03-25 18:37:00,
2013-03-25 18:42:00,36.7,30.2,30.13,ESE,107,25.0,25.0,77,0.00,,---,0.00,VWS V14.00,2013-03-25 18:42:00,
2013-03-25 18:47:00,36.7,30.5,30.13,SE,140,22.0,23.0,78,0.00,,---,0.00,VWS V14.00,2013-03-25 18:47:00,
2013-03-25 18:53:00,36.5,29.7,30.13,ESE,112,9.0,21.0,76,0.00,,---,0.00,VWS V14.00,2013-03-25 18:53:00,
2013-03-25 18:59:00,36.6,29.8,30.13,ESE,111,24.0,24.0,76,0.00,,---,0.00,VWS V14.00,2013-03-25 18:59:00,
2013-03-25 19:05:00,36.6,28.4,30.13,ESE,103,10.0,20.0,72,0.00,,---,0.00,VWS V14.00,2013-03-25 19:05:00,
2013-03-25 19:10:00,36.7,29.2,30.13,ESE,114,21.0,27.0,74,0.00,,---,0.00,VWS V14.00,2013-03-25 19:10:00,
2013-03-25 19:15:00,36.6,28.8,30.13,East,83,17.0,23.0,73,0.00,,---,0.00,VWS V14.00,2013-03-25 19:15:00,
2013-03-25 19:21:00,36.6,28.1,30.13,ESE,105,22.0,29.0,71,0.00,,---,0.00,VWS V14.00,2013-03-25 19:21:00,
2013-03-25 19:26:00,36.6,28.4,30.13,ESE,107,20.0,27.0,72,0.00,,---,0.00,VWS V14.00,2013-03-25 19:26:00,
2013-03-25 19:32:00,36.4,27.6,30.13,East,86,15.0,30.0,70,0.00,,---,0.00,VWS V14.00,2013-03-25 19:32:00,
2013-03-25 19:37:00,36.5,28.0,30.13,ESE,114,27.0,27.0,71,0.00,,---,0.00,VWS V14.00,2013-03-25 19:37:00,
2013-03-25 19:43:00,36.5,29.0,30.13,East,89,18.0,23.0,74,0.00,,---,0.00,VWS V14.00,2013-03-25 19:43:00,
2013-03-25 19:48:00,36.5,29.0,30.13,SE,136,13.0,22.0,74,0.00,,---,0.00,VWS V14.00,2013-03-25 19:48:00,
2013-03-25 19:54:00,36.4,29.9,30.13,ESE,117,23.0,28.0,77,0.00,,---,0.00,VWS V14.00,2013-03-25 19:54:00,
2013-03-25 19:59:00,36.2,29.0,30.14,SE,134,20.0,27.0,75,0.00,,---,0.00,VWS V14.00,2013-03-25 19:59:00,
2013-03-25 20:04:00,36.3,28.8,30.14,East,101,25.0,25.0,74,0.00,,---,0.00,VWS V14.00,2013-03-25 20:04:00,
2013-03-25 20:10:00,36.2,28.1,30.14,SE,131,20.0,28.0,72,0.00,,---,0.00,VWS V14.00,2013-03-25 20:10:00,
2013-03-25 20:15:00,36.1,27.6,30.14,ESE,114,27.0,28.0,71,0.00,,---,0.00,VWS V14.00,2013-03-25 20:15:00,
2013-03-25 20:20:00,36.0,27.2,30.14,ESE,109,29.0,32.0,70,0.00,,---,0.00,VWS V14.00,2013-03-25 20:20:00,
2013-03-25 20:27:00,35.9,27.1,30.14,ESE,105,14.0,18.0,70,0.00,,---,0.00,VWS V14.00,2013-03-25 20:27:00,
2013-03-25 20:32:00,36.0,27.5,30.14,East,90,20.0,31.0,71,0.00,,---,0.00,VWS V14.00,2013-03-25 20:32:00,
2013-03-25 20:37:00,36.1,28.3,30.14,East,92,21.0,23.0,73,0.00,,---,0.00,VWS V14.00,2013-03-25 20:37:00,
2013-03-25 20:43:00,35.9,27.4,30.14,ESE,106,29.0,29.0,71,0.00,,---,0.00,VWS V14.00,2013-03-25 20:43:00,
2013-03-25 20:48:00,36.0,28.2,30.14,East,83,22.0,23.0,73,0.00,,---,0.00,VWS V14.00,2013-03-25 20:48:00,
2013-03-25 20:54:00,35.9,27.4,30.14,East,98,20.0,25.0,71,0.00,,---,0.00,VWS V14.00,2013-03-25 20:54:00,
2013-03-25 20:59:00,36.0,28.2,30.14,ESE,112,23.0,23.0,73,0.00,,---,0.00,VWS V14.00,2013-03-25 20:59:00,
2013-03-25 21:05:00,35.9,28.8,30.14,ESE,102,12.0,25.0,75,0.00,,---,0.00,VWS V14.00,2013-03-25 21:05:00,
2013-03-25 21:10:00,35.8,28.7,30.14,ESE,105,26.0,26.0,75,0.00,,---,0.00,VWS V14.00,2013-03-25 21:10:00,
2013-03-25 21:15:00,35.7,27.2,30.14,East,99,31.0,31.0,71,0.00,,---,0.00,VWS V14.00,2013-03-25 21:15:00,
2013-03-25 21:21:00,35.8,27.7,30.15,SE,128,10.0,23.0,72,0.00,,---,0.00,VWS V14.00,2013-03-25 21:21:00,
2013-03-25 21:27:00,35.7,26.9,30.15,East,99,19.0,22.0,70,0.00,,---,0.00,VWS V14.00,2013-03-25 21:27:00,
2013-03-25 21:33:00,35.7,27.2,30.14,ESE,114,19.0,26.0,71,0.00,,---,0.00,VWS V14.00,2013-03-25 21:33:00,
2013-03-25 21:38:00,35.7,27.9,30.14,ESE,105,17.0,17.0,73,0.00,,---,0.00,VWS V14.00,2013-03-25 21:38:00,
2013-03-25 21:43:00,35.8,28.3,30.14,SE,129,14.0,22.0,74,0.00,,---,0.00,VWS V14.00,2013-03-25 21:43:00,
2013-03-25 21:48:00,35.8,29.0,30.14,ESE,111,17.0,26.0,76,0.00,,---,0.00,VWS V14.00,2013-03-25 21:48:00,
2013-03-25 21:53:00,35.8,29.0,30.14,ESE,111,21.0,23.0,76,0.00,,---,0.00,VWS V14.00,2013-03-25 21:53:00,
2013-03-25 21:58:00,35.7,28.9,30.14,ESE,120,10.0,21.0,76,0.00,,---,0.00,VWS V14.00,2013-03-25 21:58:00,
2013-03-25 22:03:00,35.6,28.1,30.14,ESE,113,20.0,25.0,74,0.00,,---,0.00,VWS V14.00,2013-03-25 22:03:00,
2013-03-25 22:09:00,35.8,28.7,30.15,SE,130,19.0,28.0,75,0.00,,---,0.00,VWS V14.00,2013-03-25 22:09:00,
2013-03-25 22:15:00,35.6,28.8,30.14,East,88,15.0,30.0,76,0.00,,---,0.00,VWS V14.00,2013-03-25 22:15:00,
2013-03-25 22:20:00,35.5,28.7,30.14,East,99,14.0,24.0,76,0.00,,---,0.00,VWS V14.00,2013-03-25 22:20:00,
2013-03-25 22:25:00,35.6,28.1,30.14,ESE,107,19.0,20.0,74,0.00,,---,0.00,VWS V14.00,2013-03-25 22:25:00,
2013-03-25 22:30:00,35.5,28.7,30.14,ESE,106,18.0,20.0,76,0.00,,---,0.00,VWS V14.00,2013-03-25 22:30:00,
2013-03-25 22:35:00,35.4,28.9,30.15,ESE,115,18.0,25.0,77,0.00,,---,0.00,VWS V14.00,2013-03-25 22:35:00,
2013-03-25 22:40:00,35.3,28.2,30.15,East,82,20.0,28.0,75,0.00,,---,0.00,VWS V14.00,2013-03-25 22:40:00,
2013-03-25 22:45:00,35.3,27.5,30.14,East,100,15.0,19.0,73,0.00,,---,0.00,VWS V14.00,2013-03-25 22:45:00,
2013-03-25 22:51:00,35.2,27.1,30.15,East,100,24.0,25.0,72,0.00,,---,0.00,VWS V14.00,2013-03-25 22:51:00,
2013-03-25 22:57:00,35.2,26.8,30.14,ESE,110,16.0,25.0,71,0.00,,---,0.00,VWS V14.00,2013-03-25 22:57:00,
2013-03-25 23:02:00,35.1,27.3,30.14,SE,126,15.0,20.0,73,0.00,,---,0.00,VWS V14.00,2013-03-25 23:02:00,
2013-03-25 23:07:00,35.2,26.8,30.14,ESE,102,18.0,25.0,71,0.00,,---,0.00,VWS V14.00,2013-03-25 23:07:00,
2013-03-25 23:12:00,35.1,27.3,30.15,SSE,148,25.0,26.0,73,0.00,,---,0.00,VWS V14.00,2013-03-25 23:12:00,
2013-03-25 23:17:00,35.1,27.3,30.15,ESE,106,19.0,20.0,73,0.00,,---,0.00,VWS V14.00,2013-03-25 23:17:00,
2013-03-25 23:22:00,35.1,26.7,30.15,ESE,103,24.0,24.0,71,0.00,,---,0.00,VWS V14.00,2013-03-25 23:22:00,
2013-03-25 23:27:00,35.2,26.4,30.15,ESE,105,13.0,17.0,70,0.00,,---,0.00,VWS V14.00,2013-03-25 23:27:00,
2013-03-25 23:32:00,35.2,26.8,30.15,SE,130,19.0,25.0,71,0.00,,---,0.00,VWS V14.00,2013-03-25 23:32:00,
2013-03-25 23:38:00,35.2,27.4,30.14,ESE,102,13.0,19.0,73,0.00,,---,0.00,VWS V14.00,2013-03-25 23:38:00,
2013-03-25 23:43:00,35.2,27.8,30.14,ESE,113,25.0,25.0,74,0.00,,---,0.00,VWS V14.00,2013-03-25 23:43:00,
2013-03-25 23:48:00,35.1,28.0,30.15,ESE,113,18.0,22.0,75,0.00,,---,0.00,VWS V14.00,2013-03-25 23:48:00,
2013-03-25 23:53:00,35.1,28.3,30.14,East,84,27.0,27.0,76,0.00,,---,0.00,VWS V14.00,2013-03-25 23:53:00,
2013-03-25 23:58:00,34.9,27.8,30.14,NE,54,26.0,33.0,75,0.00,,---,0.00,VWS V14.00,2013-03-25 23:58:00,